Location: Newark
(45.2500°N, 7.5833°E)
Time: 22:51:46
(UTC+00:00)

BEESAT 2 - Pass Details

Date: 21 February 2020
Orbit: 494 x 533 km, 64.9° (Epoch: 31 March)

Event Time Altitude Azimuth Distance (km) Brightness Sun altitude
Rises 18:53:49 0° 336° (NNW) 2,687 ? -19.8°
Reaches altitude 10° 18:57:47 10° 15° (NNE) 1,795 ? -20.5°
Enters shadow 18:57:51 10° 16° (NNE) 1,790 ? -20.6°
